Time,TemperatureF,DewpointF,PressureIn,WindDirection,WindDirectionDegrees,WindSpeedMPH,WindSpeedGustMPH,Humidity,HourlyPrecipIn,Conditions,Clouds,dailyrainin,SoftwareType,DateUTC
2013-05-24 00:01:00,43.0,27.0,-100.00,NNW,346,24.0,31.0,52,-99.99,,,-99.99,,2013-05-24 06:01:00,
2013-05-24 00:11:00,44.0,26.0,-100.00,NNW,346,16.0,24.0,50,-99.99,,,-99.99,,2013-05-24 06:11:00,
2013-05-24 00:21:00,43.0,26.0,-100.00,NNW,345,13.0,22.0,51,-99.99,,,-99.99,,2013-05-24 06:21:00,
2013-05-24 00:32:00,43.0,26.0,-100.00,North,353,14.0,22.0,52,-99.99,,,-99.99,,2013-05-24 06:32:00,
2013-05-24 00:41:00,42.0,26.0,-100.00,NNW,347,13.0,18.0,52,-99.99,,,-99.99,,2013-05-24 06:41:00,
2013-05-24 00:52:00,43.0,26.0,-100.00,NNW,348,13.0,18.0,50,-99.99,,,-99.99,,2013-05-24 06:52:00,
2013-05-24 01:01:00,42.0,26.0,-100.00,North,353,13.0,17.0,51,-99.99,,,-99.99,,2013-05-24 07:01:00,
2013-05-24 01:11:00,42.0,26.0,-100.00,North,351,9.0,17.0,51,-99.99,,,-99.99,,2013-05-24 07:11:00,
2013-05-24 01:21:00,42.0,25.0,-100.00,North,357,6.0,17.0,49,-99.99,,,-99.99,,2013-05-24 07:21:00,
2013-05-24 01:31:00,43.0,23.0,-100.00,North,11,10.0,13.0,45,-99.99,,,-99.99,,2013-05-24 07:31:00,
2013-05-24 01:41:00,43.0,22.0,-100.00,North,9,10.0,16.0,43,-99.99,,,-99.99,,2013-05-24 07:41:00,
2013-05-24 01:52:00,43.0,22.0,-100.00,NNW,347,8.0,13.0,44,-99.99,,,-99.99,,2013-05-24 07:52:00,
2013-05-24 02:02:00,39.0,23.0,-100.00,North,8,5.0,9.0,52,-99.99,,,-99.99,,2013-05-24 08:02:00,
2013-05-24 02:11:00,38.0,23.0,-100.00,North,7,8.0,8.0,53,-99.99,,,-99.99,,2013-05-24 08:11:00,
2013-05-24 02:22:00,39.0,22.0,-100.00,North,6,9.0,10.0,50,-99.99,,,-99.99,,2013-05-24 08:22:00,
2013-05-24 02:32:00,40.0,21.0,-100.00,North,8,8.0,9.0,47,-99.99,,,-99.99,,2013-05-24 08:32:00,
2013-05-24 02:41:00,40.0,20.0,-100.00,NNE,17,10.0,11.0,44,-99.99,,,-99.99,,2013-05-24 08:41:00,
2013-05-24 02:51:00,40.0,20.0,-100.00,NNE,14,11.0,12.0,43,-99.99,,,-99.99,,2013-05-24 08:51:00,
2013-05-24 03:01:00,40.0,20.0,-100.00,NNE,15,10.0,12.0,43,-99.99,,,-99.99,,2013-05-24 09:01:00,
2013-05-24 03:11:00,39.0,20.0,-100.00,NNE,18,9.0,10.0,45,-99.99,,,-99.99,,2013-05-24 09:11:00,
2013-05-24 03:21:00,39.0,20.0,-100.00,NNE,18,9.0,11.0,45,-99.99,,,-99.99,,2013-05-24 09:21:00,
2013-05-24 03:32:00,37.0,20.0,-100.00,NNE,33,7.0,9.0,50,-99.99,,,-99.99,,2013-05-24 09:32:00,
2013-05-24 03:42:00,37.0,20.0,-100.00,NE,35,7.0,10.0,49,-99.99,,,-99.99,,2013-05-24 09:42:00,
2013-05-24 03:52:00,36.0,20.0,-100.00,NNE,24,8.0,9.0,50,-99.99,,,-99.99,,2013-05-24 09:52:00,
2013-05-24 04:02:00,37.0,18.0,-100.00,NNE,20,7.0,9.0,45,-99.99,,,-99.99,,2013-05-24 10:02:00,
2013-05-24 04:12:00,37.0,19.0,-100.00,NNE,28,6.0,7.0,46,-99.99,,,-99.99,,2013-05-24 10:12:00,
2013-05-24 04:22:00,37.0,18.0,-100.00,NNE,16,7.0,8.0,44,-99.99,,,-99.99,,2013-05-24 10:22:00,
2013-05-24 04:32:00,37.0,18.0,-100.00,NE,34,5.0,7.0,45,-99.99,,,-99.99,,2013-05-24 10:32:00,
2013-05-24 04:42:00,35.0,19.0,-100.00,NE,43,5.0,6.0,51,-99.99,,,-99.99,,2013-05-24 10:42:00,
2013-05-24 04:52:00,38.0,23.0,-100.00,ENE,70,11.0,13.0,55,-99.99,,,-99.99,,2013-05-24 10:52:00,
2013-05-24 05:02:00,37.0,24.0,-100.00,NE,55,11.0,12.0,57,-99.99,,,-99.99,,2013-05-24 11:02:00,
2013-05-24 05:12:00,36.0,21.0,-100.00,NNE,23,5.0,11.0,53,-99.99,,,-99.99,,2013-05-24 11:12:00,
2013-05-24 05:22:00,36.0,21.0,-100.00,NNE,23,5.0,11.0,53,-99.99,,,-99.99,,2013-05-24 11:22:00,
2013-05-24 05:32:00,32.0,21.0,-100.00,NNE,21,4.0,4.0,61,-99.99,,,-99.99,,2013-05-24 11:32:00,
2013-05-24 05:41:00,32.0,20.0,-100.00,NNE,26,4.0,5.0,60,-99.99,,,-99.99,,2013-05-24 11:41:00,
2013-05-24 05:51:00,34.0,23.0,-100.00,ENE,75,7.0,8.0,64,-99.99,,,-99.99,,2013-05-24 11:51:00,
2013-05-24 06:01:00,35.0,26.0,-100.00,East,82,9.0,10.0,69,-99.99,,,-99.99,,2013-05-24 12:01:00,
2013-05-24 06:11:00,36.0,26.0,-100.00,East,80,9.0,10.0,68,-99.99,,,-99.99,,2013-05-24 12:11:00,
2013-05-24 06:21:00,35.0,25.0,-100.00,ENE,78,10.0,10.0,68,-99.99,,,-99.99,,2013-05-24 12:21:00,
2013-05-24 06:32:00,35.0,26.0,-100.00,ENE,77,9.0,9.0,69,-99.99,,,-99.99,,2013-05-24 12:32:00,
2013-05-24 06:42:00,35.0,26.0,-100.00,East,79,10.0,10.0,68,-99.99,,,-99.99,,2013-05-24 12:42:00,
2013-05-24 06:51:00,35.0,25.0,-100.00,ENE,78,11.0,11.0,68,-99.99,,,-99.99,,2013-05-24 12:51:00,
2013-05-24 07:02:00,34.0,25.0,-100.00,ENE,72,10.0,11.0,69,-99.99,,,-99.99,,2013-05-24 13:02:00,
2013-05-24 07:11:00,35.0,25.0,-100.00,ENE,64,9.0,10.0,67,-99.99,,,-99.99,,2013-05-24 13:11:00,
2013-05-24 07:21:00,38.0,25.0,-100.00,ENE,62,5.0,9.0,59,-99.99,,,-99.99,,2013-05-24 13:21:00,
2013-05-24 07:31:00,38.0,24.0,-100.00,ENE,78,11.0,11.0,58,-99.99,,,-99.99,,2013-05-24 13:31:00,
2013-05-24 07:41:00,39.0,24.0,-100.00,ENE,69,8.0,11.0,56,-99.99,,,-99.99,,2013-05-24 13:41:00,
2013-05-24 07:52:00,40.0,26.0,-100.00,ENE,74,6.0,8.0,56,-99.99,,,-99.99,,2013-05-24 13:52:00,
2013-05-24 08:01:00,41.0,25.0,-100.00,SW,230,3.0,7.0,53,-99.99,,,-99.99,,2013-05-24 14:01:00,
2013-05-24 08:11:00,43.0,25.0,-100.00,ENE,70,2.0,5.0,49,-99.99,,,-99.99,,2013-05-24 14:11:00,
2013-05-24 08:21:00,43.0,23.0,-100.00,East,91,5.0,5.0,45,-99.99,,,-99.99,,2013-05-24 14:21:00,
2013-05-24 08:31:00,44.0,23.0,-100.00,East,96,3.0,5.0,42,-99.99,,,-99.99,,2013-05-24 14:31:00,
2013-05-24 08:42:00,45.0,24.0,-100.00,SSW,193,4.0,5.0,44,-99.99,,,-99.99,,2013-05-24 14:42:00,
2013-05-24 08:51:00,45.0,23.0,-100.00,SSW,200,3.0,5.0,41,-99.99,,,-99.99,,2013-05-24 14:51:00,
2013-05-24 09:01:00,45.0,24.0,-100.00,SW,223,4.0,5.0,41,-99.99,,,-99.99,,2013-05-24 15:01:00,
2013-05-24 09:11:00,46.0,24.0,-100.00,SW,221,4.0,6.0,42,-99.99,,,-99.99,,2013-05-24 15:11:00,
2013-05-24 09:21:00,46.0,24.0,-100.00,SW,221,4.0,6.0,42,-99.99,,,-99.99,,2013-05-24 15:21:00,
2013-05-24 09:32:00,47.0,23.0,-100.00,SSW,193,5.0,6.0,38,-99.99,,,-99.99,,2013-05-24 15:32:00,
2013-05-24 09:43:00,47.0,22.0,-100.00,SSW,209,6.0,7.0,37,-99.99,,,-99.99,,2013-05-24 15:43:00,
2013-05-24 09:52:00,48.0,23.0,-100.00,SSW,192,4.0,7.0,36,-99.99,,,-99.99,,2013-05-24 15:52:00,
2013-05-24 10:03:00,48.0,23.0,-100.00,SSW,192,4.0,7.0,36,-99.99,,,-99.99,,2013-05-24 16:03:00,
2013-05-24 10:12:00,51.0,23.0,-100.00,South,186,5.0,9.0,32,-99.99,,,-99.99,,2013-05-24 16:12:00,
2013-05-24 10:22:00,49.0,20.0,-100.00,SSW,213,6.0,9.0,31,-99.99,,,-99.99,,2013-05-24 16:22:00,
2013-05-24 10:32:00,50.0,20.0,-100.00,SW,214,5.0,9.0,30,-99.99,,,-99.99,,2013-05-24 16:32:00,
2013-05-24 10:42:00,51.0,21.0,-100.00,South,186,5.0,8.0,29,-99.99,,,-99.99,,2013-05-24 16:42:00,
2013-05-24 10:52:00,52.0,22.0,-100.00,SSW,199,6.0,9.0,31,-99.99,,,-99.99,,2013-05-24 16:52:00,
2013-05-24 11:01:00,52.0,22.0,-100.00,South,187,6.0,12.0,29,-99.99,,,-99.99,,2013-05-24 17:01:00,
2013-05-24 11:12:00,53.0,23.0,-100.00,WSW,249,9.0,14.0,31,-99.99,,,-99.99,,2013-05-24 17:12:00,
2013-05-24 11:22:00,56.0,14.0,-100.00,SSW,212,15.0,17.0,19,-99.99,,,-99.99,,2013-05-24 17:22:00,
2013-05-24 11:32:00,54.0,17.0,-100.00,SSW,201,12.0,19.0,23,-99.99,,,-99.99,,2013-05-24 17:32:00,
2013-05-24 11:41:00,55.0,18.0,-100.00,SSW,196,11.0,21.0,23,-99.99,,,-99.99,,2013-05-24 17:41:00,
2013-05-24 11:52:00,55.0,15.0,-100.00,SSW,198,18.0,22.0,19,-99.99,,,-99.99,,2013-05-24 17:52:00,
2013-05-24 12:01:00,55.0,18.0,-100.00,SW,225,9.0,26.0,22,-99.99,,,-99.99,,2013-05-24 18:01:00,
2013-05-24 12:11:00,56.0,17.0,-100.00,SSW,198,9.0,22.0,21,-99.99,,,-99.99,,2013-05-24 18:11:00,
2013-05-24 12:21:00,57.0,14.0,-100.00,SSW,204,19.0,24.0,18,-99.99,,,-99.99,,2013-05-24 18:21:00,
2013-05-24 12:31:00,58.0,15.0,-100.00,SSW,201,18.0,22.0,18,-99.99,,,-99.99,,2013-05-24 18:31:00,
2013-05-24 12:41:00,59.0,18.0,-100.00,South,178,20.0,27.0,20,-99.99,,,-99.99,,2013-05-24 18:41:00,
2013-05-24 12:51:00,58.0,9.0,-100.00,SSW,198,19.0,24.0,14,-99.99,,,-99.99,,2013-05-24 18:51:00,
2013-05-24 13:01:00,61.0,15.0,-100.00,SSW,202,15.0,23.0,16,-99.99,,,-99.99,,2013-05-24 19:01:00,
2013-05-24 13:11:00,59.0,11.0,-100.00,SSW,196,15.0,26.0,14,-99.99,,,-99.99,,2013-05-24 19:11:00,
2013-05-24 13:21:00,60.0,10.0,-100.00,SSW,198,17.0,25.0,13,-99.99,,,-99.99,,2013-05-24 19:21:00,
2013-05-24 13:31:00,61.0,12.0,-100.00,SSW,204,16.0,28.0,14,-99.99,,,-99.99,,2013-05-24 19:31:00,
2013-05-24 13:41:00,60.0,14.0,-100.00,SSW,196,13.0,22.0,16,-99.99,,,-99.99,,2013-05-24 19:41:00,
2013-05-24 13:52:00,63.0,11.0,-100.00,South,179,16.0,26.0,13,-99.99,,,-99.99,,2013-05-24 19:52:00,
2013-05-24 14:01:00,61.0,10.0,-100.00,SSW,203,17.0,27.0,13,-99.99,,,-99.99,,2013-05-24 20:01:00,
2013-05-24 14:11:00,62.0,11.0,-100.00,SSW,201,13.0,24.0,12,-99.99,,,-99.99,,2013-05-24 20:11:00,
2013-05-24 14:21:00,62.0,10.0,-100.00,SSW,193,20.0,27.0,12,-99.99,,,-99.99,,2013-05-24 20:21:00,
2013-05-24 14:31:00,63.0,6.0,-100.00,SSW,196,14.0,24.0,10,-99.99,,,-99.99,,2013-05-24 20:31:00,
2013-05-24 14:41:00,63.0,8.0,-100.00,SSW,193,15.0,26.0,11,-99.99,,,-99.99,,2013-05-24 20:41:00,
2013-05-24 14:51:00,64.0,10.0,-100.00,SSW,192,17.0,26.0,11,-99.99,,,-99.99,,2013-05-24 20:51:00,
2013-05-24 15:01:00,63.0,9.0,-100.00,SSW,198,17.0,28.0,11,-99.99,,,-99.99,,2013-05-24 21:01:00,
2013-05-24 15:11:00,64.0,9.0,-100.00,SSW,201,16.0,25.0,11,-99.99,,,-99.99,,2013-05-24 21:11:00,
2013-05-24 15:21:00,63.0,10.0,-100.00,SW,225,18.0,28.0,12,-99.99,,,-99.99,,2013-05-24 21:21:00,
2013-05-24 15:32:00,64.0,12.0,-100.00,SW,222,14.0,22.0,12,-99.99,,,-99.99,,2013-05-24 21:32:00,
2013-05-24 15:42:00,66.0,14.0,-100.00,South,177,17.0,18.0,13,-99.99,,,-99.99,,2013-05-24 21:42:00,
2013-05-24 15:52:00,64.0,4.0,-100.00,SSW,201,16.0,25.0,8,-99.99,,,-99.99,,2013-05-24 21:52:00,
2013-05-24 16:02:00,65.0,11.0,-100.00,SW,216,15.0,23.0,11,-99.99,,,-99.99,,2013-05-24 22:02:00,
2013-05-24 16:12:00,65.0,9.0,-100.00,SSW,200,16.0,24.0,11,-99.99,,,-99.99,,2013-05-24 22:12:00,
2013-05-24 16:22:00,65.0,9.0,-100.00,SSW,200,16.0,24.0,11,-99.99,,,-99.99,,2013-05-24 22:22:00,
2013-05-24 16:32:00,65.0,6.0,-100.00,SSW,208,22.0,28.0,9,-99.99,,,-99.99,,2013-05-24 22:32:00,
2013-05-24 16:42:00,65.0,8.0,-100.00,SW,218,18.0,26.0,10,-99.99,,,-99.99,,2013-05-24 22:42:00,
2013-05-24 16:52:00,66.0,10.0,-100.00,SSW,200,13.0,20.0,10,-99.99,,,-99.99,,2013-05-24 22:52:00,
2013-05-24 17:02:00,64.0,10.0,-100.00,SW,226,17.0,23.0,11,-99.99,,,-99.99,,2013-05-24 23:02:00,
2013-05-24 17:11:00,66.0,13.0,-100.00,SW,230,14.0,18.0,12,-99.99,,,-99.99,,2013-05-24 23:11:00,
2013-05-24 17:21:00,65.0,14.0,-100.00,SSW,204,15.0,23.0,13,-99.99,,,-99.99,,2013-05-24 23:21:00,
2013-05-24 17:32:00,65.0,14.0,-100.00,SW,227,14.0,22.0,13,-99.99,,,-99.99,,2013-05-24 23:32:00,
2013-05-24 17:42:00,64.0,13.0,-100.00,SW,218,14.0,21.0,13,-99.99,,,-99.99,,2013-05-24 23:42:00,
2013-05-24 17:52:00,64.0,14.0,-100.00,SW,221,16.0,20.0,13,-99.99,,,-99.99,,2013-05-24 23:52:00,
2013-05-24 18:01:00,64.0,13.0,-100.00,SSW,211,18.0,21.0,13,-99.99,,,-99.99,,2013-05-25 00:01:00,
2013-05-24 18:11:00,64.0,15.0,-100.00,SSW,207,16.0,24.0,14,-99.99,,,-99.99,,2013-05-25 00:11:00,
2013-05-24 18:21:00,64.0,13.0,-100.00,SSW,206,12.0,18.0,13,-99.99,,,-99.99,,2013-05-25 00:21:00,
2013-05-24 18:32:00,63.0,12.0,-100.00,SSW,212,13.0,15.0,13,-99.99,,,-99.99,,2013-05-25 00:32:00,
2013-05-24 18:41:00,63.0,11.0,-100.00,SW,232,13.0,15.0,12,-99.99,,,-99.99,,2013-05-25 00:41:00,
2013-05-24 18:51:00,62.0,11.0,-100.00,SSW,203,14.0,15.0,12,-99.99,,,-99.99,,2013-05-25 00:51:00,
2013-05-24 19:01:00,62.0,10.0,-100.00,SSW,201,11.0,13.0,12,-99.99,,,-99.99,,2013-05-25 01:01:00,
2013-05-24 19:11:00,63.0,12.0,-100.00,SSW,205,7.0,11.0,13,-99.99,,,-99.99,,2013-05-25 01:11:00,
2013-05-24 19:21:00,63.0,12.0,-100.00,South,181,10.0,13.0,13,-99.99,,,-99.99,,2013-05-25 01:21:00,
2013-05-24 19:32:00,63.0,14.0,-100.00,South,178,6.0,11.0,14,-99.99,,,-99.99,,2013-05-25 01:32:00,
2013-05-24 19:41:00,63.0,11.0,-100.00,SSW,204,6.0,13.0,12,-99.99,,,-99.99,,2013-05-25 01:41:00,
2013-05-24 19:52:00,63.0,12.0,-100.00,SSW,203,8.0,13.0,13,-99.99,,,-99.99,,2013-05-25 01:52:00,
2013-05-24 20:01:00,63.0,13.0,-100.00,SSW,194,6.0,13.0,13,-99.99,,,-99.99,,2013-05-25 02:01:00,
2013-05-24 20:11:00,62.0,11.0,-100.00,SSW,206,9.0,11.0,13,-99.99,,,-99.99,,2013-05-25 02:11:00,
2013-05-24 20:21:00,62.0,13.0,-100.00,SSW,195,7.0,10.0,14,-99.99,,,-99.99,,2013-05-25 02:21:00,
2013-05-24 20:31:00,62.0,16.0,-100.00,SW,227,7.0,8.0,16,-99.99,,,-99.99,,2013-05-25 02:31:00,
2013-05-24 20:42:00,61.0,15.0,-100.00,SW,214,7.0,7.0,16,-99.99,,,-99.99,,2013-05-25 02:42:00,
2013-05-24 20:51:00,61.0,16.0,-100.00,SSW,210,3.0,7.0,17,-99.99,,,-99.99,,2013-05-25 02:51:00,
2013-05-24 21:01:00,60.0,21.0,-100.00,South,182,2.0,6.0,21,-99.99,,,-99.99,,2013-05-25 03:01:00,
2013-05-24 21:11:00,57.0,20.0,-100.00,SSW,192,2.0,4.0,23,-99.99,,,-99.99,,2013-05-25 03:11:00,
2013-05-24 21:21:00,54.0,17.0,-100.00,SW,217,1.0,4.0,22,-99.99,,,-99.99,,2013-05-25 03:21:00,
2013-05-24 21:32:00,53.0,16.0,-100.00,South,176,2.0,4.0,23,-99.99,,,-99.99,,2013-05-25 03:32:00,
2013-05-24 21:43:00,52.0,17.0,-100.00,West,280,1.0,3.0,25,-99.99,,,-99.99,,2013-05-25 03:43:00,
2013-05-24 21:53:00,53.0,18.0,-100.00,South,179,1.0,3.0,24,-99.99,,,-99.99,,2013-05-25 03:53:00,
2013-05-24 22:02:00,52.0,17.0,-100.00,South,183,0.0,2.0,25,-99.99,,,-99.99,,2013-05-25 04:02:00,
2013-05-24 22:12:00,50.0,16.0,-100.00,North,2,0.0,2.0,25,-99.99,,,-99.99,,2013-05-25 04:12:00,
2013-05-24 22:23:00,51.0,17.0,-100.00,NE,41,1.0,2.0,25,-99.99,,,-99.99,,2013-05-25 04:23:00,
2013-05-24 22:32:00,50.0,17.0,-100.00,East,99,1.0,2.0,26,-99.99,,,-99.99,,2013-05-25 04:32:00,
2013-05-24 22:43:00,50.0,17.0,-100.00,East,99,1.0,2.0,26,-99.99,,,-99.99,,2013-05-25 04:43:00,
2013-05-24 22:52:00,53.0,17.0,-100.00,ENE,64,13.0,14.0,23,-99.99,,,-99.99,,2013-05-25 04:52:00,
2013-05-24 23:02:00,53.0,17.0,-100.00,ENE,61,10.0,13.0,24,-99.99,,,-99.99,,2013-05-25 05:02:00,
2013-05-24 23:12:00,53.0,18.0,-100.00,ENE,65,11.0,12.0,24,-99.99,,,-99.99,,2013-05-25 05:12:00,
2013-05-24 23:22:00,53.0,18.0,-100.00,ENE,62,11.0,11.0,24,-99.99,,,-99.99,,2013-05-25 05:22:00,
2013-05-24 23:32:00,52.0,19.0,-100.00,ENE,59,13.0,14.0,27,-99.99,,,-99.99,,2013-05-25 05:32:00,
2013-05-24 23:42:00,51.0,20.0,-100.00,ENE,65,12.0,15.0,29,-99.99,,,-99.99,,2013-05-25 05:42:00,
2013-05-24 23:52:00,50.0,20.0,-100.00,ENE,67,11.0,12.0,30,-99.99,,,-99.99,,2013-05-25 05:52:00,